Attalla, AL

12:53 AM CST on February 20, 2017 (GMT -0600)
Gadsden Municipal

Weather History for KGAD - December, 2012

Change the Weather History Date:

Monday, December 3, 2012

  Actual Average Record
Temperature  
Mean Temperature 55 °F -  
Max Temperature 73 °F 55 °F 76 °F (1933)
Min Temperature 37 °F 33 °F 15 °F (1944)
Degree Days  
Heating Degree Days 10    
Growing Degree Days 5 (Base 50)    
Moisture  
Dew Point 44 °F    
Average Humidity 75    
Maximum Humidity 93    
Minimum Humidity 41    
Precipitation  
Precipitation 0.00 in - - ()
Sea Level Pressure  
Sea Level Pressure 30.26 in    
Wind  
Wind Speed 1 mph (SW)    
Max Wind Speed 12 mph    
Max Gust Speed 16 mph    
Visibility 10 miles    
Events      
Averages and records for this station are not official NWS values.
T = Trace of Precipitation, MM = Missing Value Source: NWS Daily Summary

Daily Weather History Graph

Daily Weather History Graph

Search for Another Location

Airport or City:

Trip Planner

Search our weather history database for the weather conditions in past years. The results will help you decide how hot, cold, wet, or windy it might be!

Date:

Astronomy

Dec. 03, 2012 Rise Set
Actual Time 6:33 AM CST 4:35 PM CST
Civil Twilight 6:06 AM CST 5:02 PM CST
Nautical Twilight 5:35 AM CST 5:33 PM CST
Astronomical Twilight 5:04 AM CST 6:03 PM CST
Moon 9:13 PM CST (12/3) 10:02 AM CST (12/3)
Length of Visible Light 10h 56m
Length of Day
10h 01m
Waning Gibbous, 78% of the Moon is Illuminated
Dec 3
Waning Gibbous
Dec 6
Last Quarter
Dec 13
New
Dec 19
First Quarter
Dec 28
Full

Hourly Weather History & Observations

Time (CST) Temp. Dew Point Humidity Pressure Visibility Wind Dir Wind Speed Gust Speed Precip Events Conditions
12:15 AM 44.6 °F 41.0 °F 87% 30.27 in 10.0 mi Calm Calm - N/A   Clear
12:55 AM 42.8 °F 37.4 °F 81% 30.27 in 7.0 mi Calm Calm - N/A   Clear
1:15 AM 41.0 °F 39.2 °F 93% 30.27 in 9.0 mi Calm Calm - N/A   Clear
1:35 AM 41.0 °F 39.2 °F 93% 30.28 in 9.0 mi Calm Calm - N/A   Clear
1:55 AM 39.2 °F 37.4 °F 93% 30.28 in 10.0 mi Calm Calm - N/A   Clear
2:15 AM 39.2 °F 37.4 °F 93% 30.28 in 8.0 mi Calm Calm - N/A   Clear
2:35 AM 39.2 °F 37.4 °F 93% 30.28 in 10.0 mi Calm Calm - N/A   Clear
2:55 AM 41.0 °F 37.4 °F 87% 30.27 in 10.0 mi Calm Calm - N/A   Clear
3:15 AM 39.2 °F 37.4 °F 93% 30.28 in 9.0 mi Calm Calm - N/A   Clear
3:35 AM 39.2 °F 37.4 °F 93% 30.27 in 10.0 mi Calm Calm - N/A   Clear
3:55 AM 39.2 °F 35.6 °F 87% 30.27 in 10.0 mi Calm Calm - N/A   Clear
4:15 AM 39.2 °F 37.4 °F 93% 30.27 in 10.0 mi Calm Calm - N/A   Clear
4:35 AM 39.2 °F 37.4 °F 93% 30.27 in 9.0 mi Calm Calm - N/A   Clear
4:55 AM 39.2 °F 35.6 °F 87% 30.28 in 8.0 mi Calm Calm - N/A   Clear
5:15 AM 37.4 °F 35.6 °F 93% 30.28 in 10.0 mi Calm Calm - N/A   Clear
5:35 AM 37.4 °F 35.6 °F 93% 30.29 in 10.0 mi Calm Calm - N/A   Clear
5:55 AM 37.4 °F 35.6 °F 93% 30.29 in 10.0 mi Calm Calm - N/A   Clear
6:15 AM 37.4 °F 35.6 °F 93% 30.30 in 10.0 mi Calm Calm - N/A   Partly Cloudy
6:35 AM 37.4 °F 35.6 °F 93% 30.30 in 9.0 mi Calm Calm - N/A   Partly Cloudy
6:55 AM 37.4 °F 35.6 °F 93% 30.30 in 10.0 mi Calm Calm - N/A   Clear
7:15 AM 39.2 °F 37.4 °F 93% 30.30 in 9.0 mi Calm Calm - N/A   Clear
7:35 AM 41.0 °F 39.2 °F 93% 30.31 in 10.0 mi Calm Calm - N/A   Clear
7:55 AM 42.8 °F 39.2 °F 87% 30.31 in 9.0 mi Calm Calm - N/A   Clear
8:15 AM 44.6 °F 42.8 °F 93% 30.31 in 10.0 mi Calm Calm - N/A   Clear
8:35 AM 48.2 °F 44.6 °F 87% 30.32 in 8.0 mi Calm Calm - N/A   Clear
8:55 AM 51.8 °F 46.4 °F 82% 30.32 in 9.0 mi Calm Calm - N/A   Clear
9:15 AM 53.6 °F 46.4 °F 77% 30.32 in 10.0 mi Calm Calm - N/A   Clear
9:35 AM 55.4 °F 48.2 °F 77% 30.32 in 10.0 mi Calm Calm - N/A   Clear
9:55 AM 57.2 °F 48.2 °F 72% 30.32 in 10.0 mi Calm Calm - N/A   Clear
10:15 AM 60.8 °F 48.2 °F 63% 30.31 in 10.0 mi Calm Calm - N/A   Clear
10:35 AM 62.6 °F 48.2 °F 59% 30.30 in 10.0 mi Calm Calm - N/A   Clear
10:55 AM 62.6 °F 50.0 °F 63% 30.30 in 10.0 mi NW 3.5 mph - N/A   Clear
11:15 AM 64.4 °F 50.0 °F 59% 30.28 in 10.0 mi Calm Calm - N/A   Clear
11:35 AM 66.2 °F 50.0 °F 56% 30.27 in 10.0 mi Calm Calm - N/A   Clear
11:55 AM 69.8 °F 50.0 °F 49% 30.26 in 10.0 mi WSW 6.9 mph - N/A   Clear
12:15 PM 71.6 °F 51.8 °F 50% 30.25 in 10.0 mi SW 6.9 mph - N/A   Clear
12:35 PM 71.6 °F 51.8 °F 50% 30.24 in 10.0 mi South 9.2 mph - N/A   Clear
12:55 PM 71.6 °F 50.0 °F 46% 30.23 in 10.0 mi South 11.5 mph - N/A   Scattered Clouds
1:15 PM 71.6 °F 50.0 °F 46% 30.22 in 10.0 mi South 6.9 mph - N/A   Partly Cloudy
1:35 PM 71.6 °F 48.2 °F 43% 30.22 in 10.0 mi SW 8.1 mph - N/A   Partly Cloudy
1:55 PM 73.4 °F 48.2 °F 41% 30.21 in 10.0 mi SW 11.5 mph 16.1 mph N/A   Mostly Cloudy
2:15 PM 71.6 °F 48.2 °F 43% 30.21 in 10.0 mi SSW 6.9 mph - N/A   Scattered Clouds
2:35 PM 71.6 °F 48.2 °F 43% 30.21 in 10.0 mi WSW 9.2 mph - N/A   Mostly Cloudy
2:55 PM 71.6 °F 48.2 °F 43% 30.21 in 10.0 mi South 5.8 mph - N/A   Mostly Cloudy
3:15 PM 69.8 °F 48.2 °F 46% 30.21 in 10.0 mi SW 3.5 mph - N/A   Mostly Cloudy
3:35 PM 69.8 °F 48.2 °F 46% 30.21 in 10.0 mi Calm Calm - N/A   Mostly Cloudy
3:55 PM 69.8 °F 48.2 °F 46% 30.21 in 10.0 mi Calm Calm - N/A   Overcast
4:15 PM 69.8 °F 48.2 °F 46% 30.21 in 10.0 mi Calm Calm - N/A   Scattered Clouds
4:35 PM 64.4 °F 50.0 °F 59% 30.21 in 10.0 mi Calm Calm - N/A   Mostly Cloudy
4:55 PM 66.2 °F 50.0 °F 56% 30.21 in 10.0 mi South 3.5 mph - N/A   Overcast
5:15 PM 62.6 °F 50.0 °F 63% 30.22 in 10.0 mi Calm Calm - N/A   Overcast
5:35 PM 62.6 °F 50.0 °F 63% 30.22 in 10.0 mi Calm Calm - N/A   Overcast
5:55 PM 60.8 °F 48.2 °F 63% 30.22 in 10.0 mi Calm Calm - N/A   Mostly Cloudy
6:15 PM 60.8 °F 50.0 °F 68% 30.23 in 10.0 mi Calm Calm - N/A   Mostly Cloudy
6:35 PM 57.2 °F 50.0 °F 77% 30.23 in 10.0 mi Calm Calm - N/A   Mostly Cloudy
6:55 PM 57.2 °F 48.2 °F 72% 30.23 in 10.0 mi Calm Calm - N/A   Scattered Clouds
7:15 PM 53.6 °F 46.4 °F 77% 30.23 in 10.0 mi Calm Calm - N/A   Scattered Clouds
7:35 PM 53.6 °F 46.4 °F 77% 30.23 in 10.0 mi Calm Calm - N/A   Clear
7:55 PM 51.8 °F 46.4 °F 82% 30.23 in 10.0 mi Calm Calm - N/A   Clear
8:15 PM 51.8 °F 48.2 °F 88% 30.23 in 10.0 mi Calm Calm - N/A   Clear
8:35 PM 51.8 °F 48.2 °F 88% 30.22 in 10.0 mi Calm Calm - N/A   Clear
8:55 PM 51.8 °F 46.4 °F 82% 30.22 in 10.0 mi Calm Calm - N/A   Clear
9:15 PM 51.8 °F 46.4 °F 82% 30.22 in 10.0 mi Calm Calm - N/A   Clear
9:35 PM 50.0 °F 46.4 °F 87% 30.22 in 10.0 mi Calm Calm - N/A   Clear
9:55 PM 50.0 °F 46.4 °F 87% 30.23 in 10.0 mi Calm Calm - N/A   Clear
10:15 PM 48.2 °F 44.6 °F 87% 30.23 in 10.0 mi Calm Calm - N/A   Clear
10:35 PM 48.2 °F 44.6 °F 87% 30.23 in 10.0 mi WSW 3.5 mph - N/A   Clear
10:55 PM 48.2 °F 44.6 °F 87% 30.23 in 10.0 mi Calm Calm - N/A   Clear
11:15 PM 48.2 °F 44.6 °F 87% 30.23 in 10.0 mi Calm Calm - N/A   Clear
11:35 PM 48.2 °F 44.6 °F 87% 30.23 in 10.0 mi Calm Calm - N/A   Clear
11:55 PM 46.4 °F 44.6 °F 93% 30.23 in 10.0 mi Calm Calm - N/A   Partly Cloudy